GFSMA_con_mlcape_111.txt.gz
CAPE
0 0 0 0 0 0 0 0 0 0 0 0 0 0 0 0 0 0 0 0 0 0 0 0 0 0 0 0 0 0 0 0 0 0 0 0 0 0 2 2 1 2 2
0 0 0 0 0 0 0 0 0 0 0 0 0 0 0 0 0 0 0 0 0 0 11 21 8 0 0 0 0 0 0 0 0 0 0 0 0 0 0 0 0 1 1
0 0 0 0 0 0 0 0 0 0 0 0 0 0 0 0 0 0 0 0 0 0 0 27 58 41 33 15 1 0 0 0 0 0 0 0 0 0 0 0 0 0 0
0 0 0 0 0 0 0 0 1 8 9 0 0 0 0 0 0 0 0 0 0 0 0 0 0 6 15 67 67 47 26 1 4 1 0 0 0 0 0 0 0 0 0
0 0 0 0 0 2 6 9 12 24 30 15 0 0 0 0 0 0 0 0 0 0 0 0 0 0 0 23 54 34 11 44 22 13 4 2 0 0 0 0 0 0 0
40 48 26 23 20 23 24 23 41 23 24 2 0 0 0 0 0 0 0 0 0 0 0 0 0 0 2 8 17 36 25 0 20 58 54 26 5 0 0 0 0 0 0
34 66 97 79 59 69 63 39 33 39 8 0 0 0 0 0 0 0 2 7 2 0 0 0 0 0 0 0 3 9 16 0 0 0 30 47 51 19 0 1 2 0 0
0 7 14 22 60 65 42 29 21 11 0 0 0 0 0 0 0 0 0 5 1 0 0 1 0 0 0 0 0 0 0 0 0 0 0 0 52 66 55 35 2 3 1
0 2 2 3 9 6 10 2 11 9 3 1 1 18 3 0 0 0 0 0 0 0 0 0 0 0 0 0 0 0 0 0 0 0 4 2 4 12 71 69 61 40 17
0 0 0 0 0 0 0 0 0 0 17 9 2 12 7 21 11 19 0 0 0 0 0 0 0 0 0 0 0 0 0 0 0 0 0 0 0 0 7 33 81 66 84
0 0 0 0 6 40 17 9 1 21 31 26 36 9 1 2 3 20 13 0 0 0 0 0 0 0 0 0 0 0 0 0 0 0 0 0 2 3 5 4 10 16 58
33 42 19 39 73 12 2 2 63 60 53 47 37 43 33 18 12 4 1 0 0 0 0 0 0 0 0 0 0 0 0 0 0 0 0 5 14 22 15 9 22 20 47
62 89 126 109 121 20 51 100 92 90 67 24 22 38 37 30 11 3 4 3 0 0 0 0 0 0 0 0 0 0 0 0 0 6 29 6 1 0 2 4 0 23 62
68 90 128 63 49 23 6 11 7 1 0 0 1 0 0 0 9 6 6 5 4 2 0 0 0 0 0 0 0 0 1 0 0 0 2 0 0 0 0 3 2 1 52
44 46 0 0 0 0 0 0 0 0 0 0 1 0 0 1 0 1 3 3 13 9 6 0 0 0 2 0 0 0 0 0 0 0 0 0 0 0 0 1 2 3 3
0 0 0 0 0 0 0 0 0 0 0 0 0 0 0 0 0 0 0 1 1 2 1 1 0 0 2 1 0 0 0 1 1 0 0 0 0 0 0 0 0 1 1
0 0 0 0 0 0 0 0 0 0 0 0 0 0 0 1 1 0 0 0 0 0 5 1 1 3 2 2 1 0 0 0 0 0 0 0 0 0 0 0 0 0 0
0 0 0 0 0 0 0 0 0 0 0 0 0 0 0 0 0 0 0 0 0 0 1 0 0 1 2 2 2 0 0 0 0 0 0 0 0 0 0 0 0 0 0
0 0 0 0 0 0 0 0 0 0 0 0 0 0 0 0 0 0 0 1 0 0 0 0 0 3 2 1 0 0 0 0 0 0 2 1 0 0 0 0 0 0 0
0 0 0 0 0 0 0 0 0 0 0 0 0 0 0 0 0 0 0 0 0 0 0 0 0 1 3 2 0 0 0 0 0 0 0 0 0 0 0 0 0 0 0
0 0 0 0 0 0 0 0 0 0 0 0 0 0 0 0 0 0 0 0 0 0 0 0 0 1 1 1 2 0 0 0 0 0 0 0 0 0 0 0 0 0 0
0 0 0 0 0 0 0 0 0 0 0 0 0 0 0 0 0 0 0 0 0 1 0 0 0 0 0 0 1 1 0 0 0 0 0 0 0 0 0 0 0 0 0
0 0 0 0 0 0 0 0 0 0 0 0 0 0 0 0 0 0 0 0 0 0 0 1 0 0 0 0 0 0 0 0 0 0 0 0 0 0 0 0 0 0 0
0 0 0 0 0 0 0 0 0 0 0 0 0 0 0 0 0 0 0 0 0 0 0 0 0 0 0 0 0 0 0 0 0 0 0 0 0 0 0 0 0 0 0
0 0 0 0 0 0 0 0 0 0 0 0 0 0 0 0 0 0 0 0 0 0 0 0 0 0 0 0 0 0 0 0 0 0 0 0 0 0 0 0 0 0 0
0 0 0 0 0 0 0 0 0 0 0 0 0 0 0 0 1 0 0 0 0 0 0 0 0 0 0 0 0 0 0 0 0 0 0 0 0 0 0 0 0 0 0

GFSMA_con_mlcape_114.txt.gz
CAPE
11 19 50 77 11 1 0 0 0 0 0 0 0 0 0 0 0 0 0 0 0 0 0 0 0 0 0 0 0 0 0 0 0 0 0 0 0 0 2 1 1 2 1
4 2 2 2 1 0 0 0 0 0 0 0 0 0 0 0 0 0 0 0 0 0 1 3 1 0 0 0 0 0 0 0 0 0 0 0 0 0 0 0 0 0 0
3 0 0 0 0 0 0 0 0 0 0 0 4 0 0 0 0 0 0 0 0 0 0 87 91 74 14 7 0 0 0 0 0 0 0 0 0 0 0 0 0 0 0
0 0 0 0 0 0 0 0 0 1 43 43 33 12 1 0 0 0 0 0 0 0 0 0 3 59 102 103 71 56 12 0 0 0 0 0 0 0 0 0 0 0 0
0 0 0 0 0 0 4 18 34 59 66 54 16 4 0 0 0 0 0 0 0 0 6 1 0 0 3 82 133 88 61 79 50 20 0 0 0 0 0 0 0 0 0
0 0 0 0 15 31 37 35 49 53 71 40 0 0 0 0 0 0 0 0 0 0 5 5 12 0 0 1 61 62 62 35 76 75 71 36 8 0 0 0 0 0 0
63 52 54 70 103 114 98 90 107 91 62 22 15 2 0 0 0 0 2 0 2 18 44 52 66 32 23 0 7 12 25 21 4 14 45 93 97 66 7 0 0 0 0
173 182 173 167 150 140 156 112 86 70 134 39 15 11 32 10 0 0 0 0 1 4 13 0 5 9 0 0 0 0 0 0 0 0 2 13 30 68 68 48 12 14 0
62 115 131 132 144 150 119 136 155 202 128 7 0 39 36 28 26 0 0 0 0 0 0 0 0 0 0 0 0 0 0 0 0 0 15 23 0 21 71 69 65 72 41
23 52 33 31 55 97 84 48 75 121 15 3 0 9 35 52 34 10 0 0 0 0 0 0 0 0 0 0 0 0 0 0 0 0 0 6 0 0 2 9 35 81 88
76 24 14 49 16 25 17 13 2 18 2 40 43 49 22 24 3 1 0 0 0 0 0 0 0 0 0 0 0 0 0 0 0 0 0 0 1 15 7 11 9 47 73
45 3 5 9 16 11 2 3 24 16 32 46 72 48 23 10 4 1 4 0 0 0 0 0 0 0 0 0 0 0 0 0 0 0 0 3 8 17 10 8 2 34 44
128 82 42 32 12 12 43 51 91 46 52 51 70 62 87 49 51 8 11 24 3 0 0 0 0 0 0 0 0 0 0 0 0 0 19 9 0 0 1 0 0 0 0
70 78 69 96 113 108 106 146 121 49 26 41 50 61 41 9 14 10 2 17 10 7 3 0 0 0 0 0 0 0 0 0 2 19 6 2 0 0 0 0 1 0 0
62 93 70 140 153 144 187 149 29 2 20 3 1 2 1 1 0 1 2 5 10 0 0 0 0 0 1 1 1 1 1 0 0 0 0 0 0 0 0 0 1 2 0
39 87 83 66 24 2 0 1 2 1 1 1 1 0 0 0 0 1 2 0 1 5 1 2 1 0 0 2 1 3 3 1 0 0 0 0 0 0 0 0 0 1 1
3 4 2 0 0 0 0 0 0 0 0 0 0 0 0 0 0 0 3 2 0 2 3 0 0 0 1 5 3 2 2 1 1 1 0 0 0 0 0 0 0 1 2
0 0 0 0 0 0 0 0 0 0 0 0 0 0 0 0 0 2 1 1 0 2 0 2 0 0 3 4 4 2 0 0 0 0 0 0 0 0 0 0 0 0 0
0 0 0 0 0 0 0 0 0 0 0 0 0 0 0 0 0 0 0 0 0 0 2 1 0 1 3 4 2 1 0 0 0 0 1 3 3 0 0 0 0 0 0
0 0 0 0 0 0 0 0 0 0 0 0 0 0 0 0 0 0 0 1 1 1 1 1 0 1 4 4 2 1 1 0 0 0 0 0 0 0 0 0 0 0 0
0 0 0 0 0 0 0 0 0 0 0 0 0 0 0 0 0 0 0 1 0 0 1 1 0 0 1 1 2 2 0 0 0 0 0 0 0 0 0 0 0 0 0
0 0 0 0 0 0 0 0 0 0 0 0 0 0 0 0 0 0 0 0 0 1 0 2 0 0 0 0 1 1 0 1 1 0 0 0 0 0 0 0 0 0 0
0 0 0 0 0 0 0 0 0 0 0 0 0 0 0 0 0 0 0 0 0 0 0 0 1 2 1 0 0 0 0 0 0 0 0 0 0 0 0 0 0 0 0
0 0 0 0 0 0 0 0 0 0 0 0 0 0 0 0 0 0 0 0 0 0 0 0 0 0 0 0 0 0 0 0 0 0 0 0 0 0 0 0 0 0 0
0 0 0 0 0 0 0 0 0 0 0 0 0 0 0 0 0 0 0 0 0 0 0 0 0 0 0 0 0 0 0 0 0 0 0 0 0 0 0 0 0 0 0
0 0 0 0 0 0 0 0 0 0 0 0 0 0 0 0 0 1 2 0 0 0 0 0 0 0 0 0 0 0 0 0 0 0 0 0 0 0 0 0 0 0 0

GFSMA_con_mlcape_117.txt.gz
CAPE
20 20 16 23 4 1 0 0 0 0 0 0 0 0 0 0 0 0 0 0 0 0 0 0 0 0 0 0 0 0 0 0 0 0 0 0 0 0 0 1 2 0 2
17 2 27 103 49 23 1 0 0 0 0 0 0 0 0 0 0 0 0 0 0 0 0 1 0 0 0 0 0 0 0 0 0 0 0 0 0 0 0 0 0 0 1
15 75 74 61 42 12 0 0 0 0 0 0 0 0 0 0 0 0 0 0 0 0 0 59 96 58 0 25 0 0 0 0 0 0 0 0 0 0 0 0 0 0 0
13 15 17 10 3 0 0 0 0 0 2 33 41 16 5 0 0 0 0 0 0 0 0 1 42 111 120 154 124 131 71 7 0 0 0 0 0 0 0 0 0 0 0
7 4 2 0 0 0 0 0 0 1 53 58 40 20 0 0 0 0 0 0 0 0 4 8 3 8 22 74 156 153 133 110 87 60 7 0 0 0 0 0 0 0 0
0 0 0 0 0 0 10 27 44 70 74 86 29 0 0 0 0 0 0 0 0 0 0 12 6 2 0 0 20 50 62 78 88 53 52 51 36 1 0 0 0 0 0
0 0 0 0 0 35 47 49 70 108 118 79 12 0 0 2 0 0 0 0 4 15 25 34 59 63 2 0 1 10 34 46 41 25 21 56 32 45 41 7 1 0 0
0 0 3 32 75 105 94 138 195 203 214 197 40 30 31 27 0 0 0 0 0 6 11 9 7 35 44 0 0 0 0 0 0 3 4 16 20 58 83 91 46 29 3
52 60 93 96 144 145 210 268 246 260 242 188 38 68 22 18 58 0 0 0 0 0 0 0 0 0 0 0 0 0 0 0 0 2 26 41 44 48 76 99 122 107 81
198 191 188 189 224 226 242 250 277 326 326 189 15 14 45 50 17 16 0 0 0 0 0 0 0 0 0 0 0 0 0 0 0 0 1 52 50 31 35 25 58 96 115
95 134 107 69 106 173 243 241 151 159 84 30 67 130 34 38 58 5 5 0 0 0 0 0 0 0 0 0 0 0 0 0 0 0 0 27 10 17 42 50 81 94 111
54 36 52 94 123 131 102 22 11 33 80 101 151 114 60 48 30 7 0 1 2 0 0 0 0 0 0 0 0 0 0 0 0 0 0 2 23 40 42 20 2 22 35
76 78 53 49 44 49 34 8 30 65 79 144 143 106 97 53 28 1 1 0 2 2 0 0 0 0 0 0 0 0 0 0 0 0 0 4 14 0 0 0 0 0 0
170 76 28 54 20 32 43 19 28 101 92 102 95 46 58 17 2 3 1 0 2 3 0 0 0 0 0 0 0 0 0 0 0 1 13 0 0 0 0 0 0 0 0
141 112 109 117 95 58 52 54 99 85 81 111 68 0 0 0 1 0 0 3 7 0 0 0 4 0 0 0 0 1 1 0 0 1 0 0 0 0 0 0 0 0 0
66 116 121 104 137 53 40 148 50 27 4 0 0 1 1 0 0 0 0 0 0 1 1 0 0 0 0 0 0 0 1 0 1 1 0 0 0 0 0 0 0 0 0
42 42 65 54 50 13 20 26 0 0 0 0 0 0 0 0 0 0 1 0 0 1 3 0 0 0 0 1 1 1 0 0 1 0 0 0 0 0 0 0 0 0 4
34 21 12 9 1 0 0 0 0 0 0 0 0 0 0 0 0 0 0 1 0 0 2 2 1 0 0 3 2 2 0 0 0 0 0 0 0 0 0 0 0 0 4
0 0 0 0 0 0 0 0 0 0 0 0 0 0 0 0 0 0 0 0 0 0 0 1 2 0 0 1 2 0 0 0 0 0 1 0 0 0 0 0 0 0 0
0 0 0 0 0 0 0 0 0 0 0 0 0 0 0 0 0 0 0 0 0 0 0 0 1 0 0 1 3 1 1 0 0 0 0 0 0 0 0 0 0 0 0
0 0 0 0 0 0 0 0 0 0 0 0 0 0 0 0 0 0 0 0 0 0 0 0 0 2 0 0 0 1 1 0 0 0 0 0 0 0 0 0 0 0 0
0 0 0 0 0 0 0 0 0 0 0 0 0 0 0 0 0 0 0 0 0 0 0 1 1 1 0 0 0 0 0 1 1 0 0 0 0 0 0 0 0 0 0
0 0 0 0 0 0 0 0 0 0 0 0 0 0 0 0 0 0 0 0 0 0 0 0 0 0 0 0 0 0 0 0 0 0 0 0 0 0 0 0 0 0 0
0 0 0 0 0 0 0 0 0 0 0 0 0 0 0 0 0 0 0 0 0 0 0 0 0 0 0 0 0 0 0 0 0 0 0 0 0 0 0 0 0 0 0
0 0 0 0 0 0 0 0 0 0 0 0 0 0 0 0 0 0 0 0 0 0 0 0 0 0 0 1 1 0 0 0 0 0 0 0 0 0 0 0 0 0 0
0 0 0 0 0 0 0 0 0 0 0 0 0 0 0 0 0 0 0 0 0 0 0 0 0 0 0 0 0 0 0 0 0 0 0 0 0 0 0 0 0 0 0

GFSMA_con_mlcape_120.txt.gz
CAPE
20 15 0 0 0 0 0 0 0 0 0 0 0 0 0 0 0 0 0 0 0 0 0 0 0 0 0 0 0 0 0 0 0 0 0 0 0 0 1 1 0 2 1
12 9 1 0 0 0 0 0 0 0 0 0 0 0 0 0 0 0 0 0 0 0 0 0 0 0 0 0 0 0 0 0 0 0 0 0 0 0 0 0 0 0 0
10 3 3 0 0 2 0 0 0 0 0 0 0 0 0 0 0 0 0 0 0 0 0 34 65 55 52 36 0 0 0 0 0 0 0 0 0 0 0 0 0 0 0
14 0 1 30 7 0 0 0 0 0 0 1 17 0 0 0 0 0 0 0 0 0 0 0 53 100 146 168 162 152 96 46 14 1 0 0 0 0 0 0 0 0 0
15 6 8 1 0 0 0 0 0 0 5 38 22 7 0 0 0 0 0 0 0 0 1 10 11 20 29 25 48 112 92 60 40 38 60 24 6 0 0 0 0 0 0
9 0 0 0 0 0 0 0 0 1 44 45 26 0 0 0 0 0 0 0 0 0 0 1 14 9 11 6 18 59 94 66 40 34 34 29 49 62 41 0 0 0 0
0 0 0 0 0 0 0 0 24 51 73 50 14 0 0 0 0 0 0 0 0 0 0 3 23 1 1 0 3 12 14 16 21 11 14 27 48 39 47 50 6 1 0
0 0 0 0 0 0 23 32 57 67 71 46 0 0 4 0 0 0 0 0 0 0 0 0 4 12 6 1 2 0 1 1 1 0 3 18 2 28 72 79 70 76 49
0 0 0 0 12 60 77 78 131 129 83 38 7 5 1 2 25 0 0 0 0 0 0 0 4 1 0 0 0 0 0 0 0 0 0 9 9 13 31 61 104 102 144
0 0 16 32 106 122 126 179 171 142 191 87 4 1 1 3 2 7 0 0 0 0 0 0 0 0 0 0 0 0 0 0 0 0 3 16 34 35 43 72 108 141 116
39 81 70 145 180 188 202 183 127 111 87 59 20 23 19 0 0 1 0 0 0 0 0 0 0 0 0 0 0 0 0 0 0 2 8 24 44 17 63 81 69 59 58
131 127 141 155 175 178 179 128 80 64 46 31 47 58 10 0 1 0 0 0 1 0 0 0 0 0 0 0 0 0 0 0 0 2 6 26 18 40 29 15 0 0 0
91 108 98 88 113 120 119 47 8 5 18 10 21 62 51 23 48 4 2 0 0 0 0 0 0 0 0 0 0 0 0 0 0 1 4 13 40 7 0 0 0 0 0
56 76 76 83 92 73 24 0 6 1 14 44 57 79 73 38 16 0 0 0 0 0 0 0 0 0 0 0 0 0 0 0 1 5 1 28 0 0 0 0 0 0 0
42 51 68 47 38 31 51 4 0 2 34 63 68 32 0 0 0 0 0 0 1 0 0 0 0 0 0 0 0 0 0 0 0 0 1 0 0 0 0 0 0 0 0
80 53 52 57 41 37 35 21 58 32 44 41 23 4 0 0 0 0 0 0 0 0 0 0 0 0 0 0 0 0 0 0 0 2 0 0 0 0 0 0 0 0 0
67 74 102 120 84 32 9 25 3 1 16 4 0 0 0 0 0 0 0 0 0 0 0 0 0 0 0 0 1 0 0 0 0 0 0 0 0 0 0 0 0 0 0
46 62 37 59 33 18 11 9 3 1 0 0 0 0 0 0 0 0 0 0 0 0 0 0 0 0 0 0 0 0 0 0 0 1 0 0 0 0 0 0 0 0 1
37 24 11 16 19 9 15 6 9 0 0 0 0 0 0 0 0 0 0 0 0 0 0 1 0 0 0 0 0 0 0 0 0 0 1 0 2 0 0 0 0 0 0
0 1 0 0 0 1 0 0 0 0 0 0 0 0 0 0 0 0 0 0 0 0 0 0 0 0 0 0 0 0 0 0 0 0 0 0 1 0 0 0 0 0 0
0 0 0 0 0 0 0 0 0 0 0 0 0 0 0 0 0 0 0 0 0 0 0 0 0 0 0 0 0 0 0 0 0 0 0 0 0 0 0 0 0 0 0
0 0 0 0 0 0 0 0 0 0 0 0 0 0 0 0 0 0 0 0 0 0 0 0 0 0 0 1 0 0 0 0 0 0 0 0 0 0 0 0 0 0 0
0 0 0 0 0 0 0 0 0 0 0 0 0 0 0 0 0 0 0 0 0 0 0 0 0 1 1 0 0 0 0 0 0 0 0 0 0 0 0 0 0 0 0
0 0 0 0 0 0 0 0 0 0 0 0 0 0 0 0 0 0 0 0 0 0 0 0 0 0 0 0 0 0 0 0 0 0 0 0 0 0 0 0 0 0 0
0 0 0 0 0 0 0 0 0 0 0 0 0 0 0 0 0 0 0 0 0 0 0 0 0 0 0 1 1 0 0 0 0 0 0 0 0 0 0 0 0 0 0
0 0 0 0 0 0 0 0 0 0 0 0 0 0 0 0 0 0 0 0 0 0 0 0 0 0 0 0 0 0 1 1 1 0 0 0 0 0 0 0 0 0 0

GFSMA_con_mlcape_123.txt.gz
CAPE
0 0 0 0 0 0 0 0 0 0 0 0 0 0 0 0 0 0 0 0 0 0 0 0 0 0 0 0 0 0 0 0 0 0 0 0 0 1 4 5 1 1 1
0 0 0 0 0 0 0 0 0 0 0 0 0 0 0 0 0 0 0 0 0 0 0 0 0 2 0 0 0 0 0 0 0 0 0 0 0 0 0 0 0 0 0
0 0 0 0 0 0 0 0 0 0 0 0 0 0 0 0 0 0 0 0 0 0 0 26 64 63 65 48 23 0 0 0 0 0 0 0 0 0 0 0 0 0 0
0 0 0 0 0 0 0 0 0 0 0 0 0 0 0 0 0 0 0 0 0 0 0 1 54 138 146 166 161 100 95 45 25 1 1 0 0 0 0 0 0 0 0
0 0 0 0 0 0 0 0 0 0 0 0 7 0 0 0 0 0 0 0 0 0 0 0 4 31 65 62 78 72 58 34 26 38 47 35 11 0 0 0 0 0 0
0 0 0 0 0 0 0 0 0 0 2 17 5 0 0 0 0 0 0 0 0 0 0 0 0 7 12 37 34 55 31 62 45 26 12 25 33 62 62 3 0 0 0
7 4 0 0 0 0 0 0 0 0 10 8 0 0 0 0 0 0 0 0 0 0 0 0 0 0 0 6 11 39 41 40 20 5 21 26 49 66 89 71 67 25 17
3 3 0 0 0 0 0 0 0 25 35 11 7 0 0 0 0 0 0 0 0 0 0 0 0 9 6 0 0 0 0 0 0 2 0 21 59 85 89 97 116 74 64
3 0 0 0 0 0 0 0 30 36 35 22 8 0 0 0 0 0 0 0 0 0 0 0 0 0 0 0 0 0 0 0 0 0 5 21 74 76 81 76 85 118 106
2 0 0 0 0 0 8 28 57 66 80 35 3 0 0 0 0 0 0 0 0 0 0 0 0 0 0 0 0 0 0 0 0 1 5 33 69 102 89 113 112 106 82
0 0 0 0 0 13 56 79 108 123 116 31 18 0 0 0 0 0 0 0 0 0 0 0 0 0 0 0 0 0 0 0 0 1 5 68 86 79 87 76 67 42 24
0 0 0 0 39 88 91 108 128 118 104 84 26 5 0 0 0 0 0 0 0 0 0 0 0 0 0 0 0 0 0 0 0 1 2 11 73 20 43 18 5 0 0
0 8 30 51 117 128 136 128 107 104 67 45 21 39 17 0 0 0 0 0 0 0 0 0 0 0 0 0 0 0 0 0 0 2 3 3 19 3 0 0 0 0 0
16 27 119 140 136 143 129 89 83 38 10 19 26 33 11 1 0 0 0 0 0 0 0 0 0 0 0 0 0 0 0 0 1 1 1 11 1 0 0 0 0 0 0
97 133 152 145 131 118 100 61 23 1 17 59 56 40 13 0 0 0 0 0 0 0 0 0 0 0 0 0 0 0 0 1 3 1 0 0 0 0 0 0 0 0 0
166 179 195 121 68 69 38 9 2 3 27 61 38 4 0 0 0 0 0 0 0 0 0 0 0 0 0 0 0 0 0 0 0 0 1 0 0 0 0 0 0 0 0
114 151 122 57 40 29 22 7 8 11 19 11 19 7 0 0 0 0 0 0 0 0 0 0 0 0 0 0 0 0 0 0 0 1 1 0 0 0 0 0 0 0 0
77 78 73 48 18 23 44 2 0 0 5 7 10 13 0 0 0 0 0 0 0 0 0 0 0 0 0 0 0 0 0 0 0 0 1 0 0 0 0 0 0 0 0
50 56 45 36 33 2 0 1 0 13 3 3 0 2 0 0 0 0 0 0 0 0 0 0 0 0 0 0 0 0 0 0 0 0 0 1 1 0 0 0 0 0 0
31 46 33 33 33 30 20 1 0 0 0 0 0 0 0 0 0 0 0 0 0 0 0 0 0 0 0 0 0 0 0 0 0 0 0 0 2 2 0 0 0 0 0
1 3 0 1 1 0 0 0 0 0 0 0 0 0 0 0 0 0 0 0 0 0 0 0 0 0 0 0 0 0 0 0 0 0 0 0 0 0 0 0 0 0 0
0 0 0 0 0 0 0 0 0 0 0 0 0 0 0 0 0 0 0 0 0 0 0 0 0 0 0 0 0 0 0 0 0 0 1 0 0 0 0 0 0 0 0
0 0 0 0 0 0 0 0 0 0 0 0 0 0 0 0 0 0 0 0 0 0 0 0 0 0 0 0 0 0 0 0 0 0 0 0 0 0 0 0 0 0 0
1 1 1 0 0 0 0 0 0 0 0 0 0 0 0 0 0 0 0 0 0 0 0 0 0 0 0 0 0 0 1 0 0 0 0 0 0 0 0 0 0 0 0
0 0 0 0 0 0 0 0 0 0 0 0 0 0 0 0 0 0 0 0 0 0 0 0 0 0 0 0 1 0 1 0 0 0 0 0 0 0 0 0 0 0 0
0 0 0 0 0 0 0 0 0 0 0 0 0 0 0 0 0 0 0 0 0 0 0 0 0 0 0 0 0 0 0 0 0 0 0 0 0 0 0 0 0 0 0

GFSMA_con_mlcape_126.txt.gz
CAPE
1 1 0 0 0 0 0 0 0 0 0 0 0 0 0 0 0 0 0 0 0 0 0 0 0 0 0 0 0 0 0 0 0 0 0 0 0 0 0 0 0 0 1
0 0 0 0 0 0 0 0 0 0 0 0 0 0 0 0 0 0 0 0 0 0 0 0 5 0 0 0 0 0 0 0 0 0 0 0 0 0 0 0 0 0 0
3 0 0 0 0 0 0 0 0 0 0 0 0 0 0 0 0 0 0 0 0 0 0 22 50 50 45 42 30 6 0 0 4 0 0 0 0 0 0 0 0 0 0
1 0 0 0 0 0 0 0 0 0 0 0 0 0 0 0 0 0 0 0 0 0 0 0 38 116 138 139 108 91 75 56 35 11 1 0 0 0 0 0 0 0 0
0 0 0 0 0 0 0 0 0 0 0 0 0 0 0 0 0 0 0 0 0 0 0 0 0 21 22 19 79 100 33 19 39 29 14 26 27 20 4 2 1 0 0
0 0 0 0 0 0 0 0 0 0 0 0 0 0 0 0 0 0 0 0 0 0 0 0 0 0 0 2 5 16 8 27 23 15 4 4 14 36 62 59 15 7 8
2 0 0 0 0 0 0 0 0 0 0 0 0 0 0 0 0 0 0 0 0 0 0 0 0 0 0 2 9 8 2 24 20 29 21 0 0 29 55 83 82 56 69
1 0 0 0 0 0 0 0 0 0 0 1 0 0 0 0 0 0 0 0 0 0 0 0 0 0 0 0 0 0 0 0 0 2 1 10 1 23 33 37 71 89 109
1 0 0 0 0 0 0 0 0 0 0 7 0 0 0 0 0 0 0 0 0 0 0 0 0 0 0 0 0 0 0 0 0 3 6 5 31 50 20 49 65 55 90
5 0 0 0 0 0 0 0 0 0 25 28 0 0 0 0 0 0 0 0 0 0 0 0 0 0 0 0 0 0 0 0 0 1 1 0 36 65 63 52 72 40 38
1 0 0 0 0 0 0 0 0 0 45 43 26 5 0 0 0 0 0 0 0 0 0 0 0 0 0 0 0 0 0 0 0 1 2 5 33 80 50 45 16 8 10
0 0 0 0 0 0 0 0 13 58 69 67 43 9 18 2 0 0 0 0 0 0 0 0 0 0 0 0 0 0 0 0 0 1 2 1 6 47 28 8 0 0 0
4 0 0 0 0 0 2 25 85 116 117 95 52 47 15 2 2 0 0 0 0 0 0 0 0 0 0 0 0 0 0 0 1 1 3 3 8 11 1 0 0 0 0
5 23 16 20 23 24 31 101 134 136 106 110 93 71 49 24 23 9 3 0 0 0 0 0 0 0 0 0 0 0 0 0 0 2 10 3 2 0 0 0 0 0 0
30 78 71 60 41 41 113 152 161 162 102 67 39 47 65 23 16 4 0 0 0 0 0 0 0 0 0 0 0 0 0 0 1 2 0 0 0 0 0 0 0 0 0
61 88 97 80 68 132 156 169 136 117 69 27 11 54 27 0 0 0 0 0 0 0 0 0 0 0 0 0 0 0 0 0 0 0 2 0 0 0 0 0 0 0 0
79 100 133 153 173 186 173 157 124 75 18 10 38 49 18 0 0 0 0 0 0 0 0 0 0 0 0 0 0 0 0 0 0 0 0 1 0 0 0 0 0 0 0
110 119 134 193 181 183 117 144 128 34 4 12 12 18 0 0 0 0 0 0 0 0 0 0 0 0 0 0 0 0 0 0 0 0 0 0 0 0 0 0 0 0 0
72 87 105 119 121 83 100 100 96 36 13 6 0 1 0 0 0 0 0 0 0 0 0 0 0 0 0 0 0 0 0 0 0 0 0 0 1 2 0 0 0 0 0
43 63 63 64 74 91 87 79 53 37 12 4 1 0 0 0 0 0 0 0 0 0 0 0 0 0 0 0 0 0 0 0 0 0 0 0 0 1 0 0 0 0 0
8 38 38 28 53 58 61 58 16 11 3 0 0 0 0 0 0 0 0 0 0 0 0 0 0 0 0 0 0 0 0 0 0 0 0 0 0 0 0 0 0 0 0
2 0 0 0 13 13 9 0 3 0 0 0 0 0 0 0 0 0 0 0 0 0 0 0 0 0 0 0 0 0 0 0 0 0 0 0 0 0 0 0 0 0 0
0 0 0 0 0 0 0 0 0 0 0 1 0 0 0 0 0 0 0 0 0 0 0 0 0 0 0 0 0 0 0 0 1 0 0 0 0 0 0 0 0 0 0
1 1 1 1 0 0 0 0 1 0 1 0 0 0 0 0 0 0 0 0 0 0 0 0 0 0 0 0 0 0 0 0 0 0 0 0 0 0 0 0 0 0 0
0 0 0 0 0 0 0 0 0 0 0 0 0 0 0 0 0 0 0 0 0 0 0 0 0 0 0 0 1 0 2 0 0 0 0 0 0 0 0 0 0 0 0
0 0 0 0 0 0 0 0 0 0 0 0 0 0 0 0 0 0 0 0 0 0 0 0 0 0 0 0 0 0 0 0 0 0 0 0 0 0 0 0 0 0 0

GFSMA_con_mlcape_129.txt.gz
CAPE
4 0 0 0 0 0 0 0 0 0 0 0 0 0 0 0 0 0 0 0 0 0 0 0 0 0 0 0 0 0 0 0 0 0 0 0 0 0 0 0 0 0 1
2 1 0 0 0 0 0 0 0 0 0 0 0 0 0 0 0 0 0 0 0 0 0 0 1 0 0 0 0 0 0 0 0 0 0 0 0 0 0 0 0 0 0
1 1 0 0 0 0 0 0 0 0 0 0 0 0 0 0 0 0 0 0 0 0 0 0 32 46 39 43 28 0 1 0 0 0 0 2 0 0 0 0 0 0 0
1 1 0 0 0 0 0 0 0 0 0 0 0 0 0 0 0 0 0 0 0 0 0 0 3 72 67 41 69 61 58 49 29 26 14 5 0 0 0 0 0 0 0
1 0 0 0 0 0 0 0 0 0 0 0 0 0 0 0 0 0 0 0 0 0 0 0 0 0 0 3 32 14 20 14 23 27 28 25 12 57 34 14 1 0 0
1 5 0 0 0 0 0 0 0 0 0 0 0 0 0 0 0 0 0 0 0 0 0 0 0 0 0 0 0 12 21 41 41 22 11 14 3 13 41 63 71 52 14
15 1 0 0 0 0 0 0 0 0 0 0 0 0 0 0 0 0 0 0 0 0 0 0 0 0 0 0 0 0 7 36 55 36 0 5 13 24 34 25 33 0 23
17 0 0 0 0 0 0 0 0 0 0 0 0 0 0 0 0 0 0 0 0 0 0 0 0 0 0 0 0 0 0 1 2 2 13 9 4 10 37 39 13 28 33
49 5 5 0 0 0 0 0 0 0 0 0 1 0 0 0 0 0 0 0 0 0 0 0 0 0 0 0 0 0 0 0 1 1 17 14 15 17 46 26 4 25 17
44 4 2 0 0 0 0 0 0 0 0 0 2 0 0 0 0 0 0 0 0 0 0 0 0 0 0 0 0 0 0 0 0 0 1 4 10 50 37 26 16 1 0
93 8 0 18 0 0 0 0 0 0 0 0 24 18 0 0 0 0 0 0 0 0 0 0 0 0 0 0 0 0 0 0 0 2 1 1 5 21 41 26 6 1 0
61 16 5 7 5 0 0 0 0 0 0 11 26 44 22 2 3 0 0 0 0 0 0 0 0 0 0 0 0 0 0 0 0 0 1 1 4 12 27 13 2 0 0
42 38 5 2 10 0 0 20 9 0 0 37 68 69 46 23 0 0 0 0 0 0 0 0 0 0 0 0 0 0 0 0 0 1 3 13 6 14 9 0 0 1 0
29 2 1 0 6 0 4 46 26 10 3 34 76 80 60 42 0 0 0 0 0 0 0 0 0 0 0 0 0 0 0 0 1 1 1 1 1 1 0 0 0 0 0
2 0 1 6 26 13 34 58 32 15 19 84 121 110 92 27 9 8 0 0 0 0 0 0 0 0 0 0 0 0 0 0 0 1 1 0 0 0 0 0 0 0 0
1 1 1 1 25 50 74 59 29 34 103 126 158 138 75 68 54 21 6 0 0 0 0 0 0 0 0 0 0 0 0 0 0 1 1 1 0 0 0 0 0 0 0
0 10 0 13 21 65 70 63 63 95 170 179 152 134 58 61 22 10 3 0 0 0 0 0 0 0 0 0 0 0 0 0 0 0 0 0 0 0 0 0 0 0 0
33 58 76 69 67 42 65 97 117 171 197 196 175 106 40 37 33 2 0 0 0 0 0 0 0 0 0 0 0 0 0 0 0 0 0 0 1 0 0 0 0 0 0
31 69 71 78 92 91 96 135 177 161 164 176 135 67 63 45 24 0 0 0 0 0 0 0 0 0 0 0 0 0 0 0 0 0 0 0 0 1 3 0 0 0 0
59 85 78 78 120 109 124 115 113 101 69 49 50 61 17 44 42 0 0 0 0 0 0 0 0 0 0 0 0 0 0 0 0 0 0 0 0 0 1 0 0 0 0
62 80 91 61 51 60 58 63 48 47 42 25 20 9 4 8 1 0 0 0 0 0 0 0 0 0 0 0 0 0 0 0 0 0 0 0 0 0 0 1 0 0 0
0 19 29 25 28 11 2 3 0 18 19 12 6 0 1 0 0 0 0 0 0 0 0 0 0 0 0 0 0 0 0 0 0 0 0 0 0 0 0 0 0 0 0
0 1 1 0 0 0 0 0 0 1 0 0 0 0 0 1 2 1 0 0 0 0 0 0 0 0 0 0 0 0 0 0 0 0 0 0 0 0 0 0 0 0 0
0 0 0 1 1 3 1 2 2 0 0 0 1 2 2 4 1 0 0 0 0 0 0 0 0 0 0 0 0 0 0 0 0 0 0 0 0 0 0 0 0 0 0
0 0 0 0 0 0 0 0 0 0 0 1 1 0 0 0 0 0 0 0 0 0 0 0 0 0 0 0 0 0 0 0 0 0 0 0 0 0 0 0 0 0 1
1 0 0 0 0 1 0 0 0 0 0 0 0 0 0 0 0 0 0 0 0 0 0 0 0 0 0 0 1 0 0 0 1 0 0 0 0 0 0 0 0 0 0

GFSMA_con_mlcape_135.txt.gz
CAPE
115 35 4 2 0 0 0 0 0 0 0 0 0 0 0 0 0 0 0 0 0 0 1 0 0 0 0 0 0 0 0 0 0 0 0 0 0 0 0 0 0 0 0
76 20 0 0 0 0 0 0 0 0 0 0 0 0 0 0 0 0 0 0 0 0 1 3 4 2 1 1 0 0 0 0 0 0 0 0 0 0 0 0 0 0 0
38 25 1 1 0 0 0 0 0 0 0 0 0 0 0 0 0 0 0 0 0 0 0 3 11 12 16 47 45 32 10 0 0 1 0 0 0 0 0 0 0 0 0
51 24 1 0 0 0 0 0 0 0 0 0 0 0 0 0 0 0 0 0 0 0 0 0 0 4 14 0 25 30 0 14 27 28 37 20 1 0 0 0 0 0 0
21 6 2 2 0 0 0 0 0 0 0 0 0 0 0 0 0 0 0 0 0 0 0 0 0 0 0 0 0 0 0 0 0 4 13 21 0 0 0 0 0 18 24
27 3 1 2 0 0 0 0 0 0 0 0 0 0 0 0 0 0 0 0 0 0 0 0 0 0 0 0 0 0 0 0 0 10 1 0 0 0 0 0 0 0 0
50 5 5 2 0 0 0 0 0 0 0 0 0 0 0 0 0 0 0 0 0 0 0 0 0 0 0 0 0 0 0 29 23 0 0 0 0 0 0 0 0 0 0
132 26 2 1 0 0 0 0 0 0 0 0 0 0 0 0 0 0 0 0 0 0 0 0 0 0 0 0 0 0 0 0 0 0 0 0 0 0 0 0 0 0 0
139 47 3 1 1 0 0 0 0 0 0 0 0 0 0 0 0 0 0 0 0 0 0 0 0 0 0 0 0 0 0 0 1 0 2 7 9 9 9 0 4 2 0
110 89 16 20 2 0 0 0 0 0 0 0 0 0 0 0 0 0 0 0 0 0 0 0 0 0 0 0 0 0 0 0 0 0 0 4 5 9 17 12 26 6 0
195 115 58 14 4 0 0 0 0 0 0 0 0 0 0 0 0 0 0 0 0 0 0 0 0 0 0 0 0 0 0 0 0 1 1 2 3 12 18 29 38 9 3
20 120 99 41 20 1 0 0 0 0 0 0 0 0 0 0 0 0 0 0 0 0 0 0 0 0 0 0 0 0 0 0 0 0 0 8 11 7 6 18 29 2 1
33 69 100 93 27 1 1 1 0 0 0 0 0 12 30 8 0 12 1 0 0 0 0 0 0 0 0 0 0 0 0 0 0 0 0 2 0 0 9 13 4 0 0
69 52 133 115 71 9 18 3 0 0 0 0 0 30 38 32 7 16 15 8 1 0 0 0 1 1 0 0 0 0 0 0 0 0 0 0 0 0 1 0 0 0 0
118 93 153 179 47 42 8 1 1 0 0 0 0 8 48 49 44 46 39 21 43 15 2 0 0 0 0 0 0 0 0 0 0 0 0 1 0 0 0 0 0 0 0
140 131 50 76 61 17 3 2 1 0 0 1 1 13 31 57 71 71 45 22 16 37 22 0 0 0 0 0 0 0 0 0 0 0 0 0 1 1 0 0 0 0 0
135 89 98 53 40 41 3 2 0 1 2 1 0 9 46 73 41 34 57 60 58 3 26 6 0 0 0 0 0 1 0 0 0 0 0 0 0 0 0 0 0 0 0
116 96 98 70 65 52 18 1 1 0 1 1 0 14 53 67 69 72 79 82 121 22 8 9 0 0 0 2 3 0 0 0 0 0 0 0 0 0 0 3 0 0 0
70 74 75 72 13 33 16 6 5 2 1 0 0 26 95 85 83 108 108 86 71 2 0 0 0 0 0 0 0 0 0 0 0 0 0 0 0 1 1 2 2 0 0
53 37 71 46 40 30 2 12 4 1 0 0 41 77 113 92 76 96 47 68 26 0 0 0 0 0 0 1 1 0 0 0 0 0 0 0 0 0 0 1 7 0 0
48 41 58 28 13 4 1 4 1 3 2 19 12 5 35 42 23 45 37 36 19 2 0 0 0 0 0 1 0 0 0 0 0 0 0 0 0 0 0 0 4 0 0
0 0 0 0 0 0 0 0 4 21 1 4 0 0 7 10 11 20 14 15 17 18 5 0 0 0 0 0 0 0 0 0 0 0 0 0 0 0 0 0 0 0 0
0 0 0 0 0 0 0 0 7 7 27 30 22 19 23 13 6 1 6 0 0 0 0 0 1 0 1 0 0 0 0 0 0 0 0 0 0 0 0 0 0 1 0
4 3 2 4 3 2 1 0 0 0 0 1 1 0 0 0 0 0 0 0 0 1 1 0 1 0 0 0 0 0 0 0 0 0 0 0 0 0 0 0 0 3 3
2 2 2 1 1 1 0 0 0 0 1 2 2 1 1 1 0 0 0 0 0 0 2 0 1 0 0 0 0 0 0 0 0 0 0 0 0 0 0 0 0 0 2
0 0 0 0 0 0 0 0 0 0 0 1 1 1 1 1 2 1 0 0 0 0 0 0 0 0 0 1 0 0 0 0 0 0 0 0 0 0 0 0 0 0 0

GFSMA_con_mlcape_138.txt.gz
CAPE
533 477 258 192 100 5 1 2 0 0 0 0 0 0 0 0 0 0 0 0 0 1 2 2 0 0 0 0 0 0 0 0 0 0 0 0 0 0 0 0 0 0 0
515 357 240 101 45 3 0 0 0 0 0 0 0 0 0 0 0 0 0 0 0 0 2 7 4 4 2 0 0 0 0 0 0 0 0 0 0 0 0 0 0 0 0
497 237 216 71 28 8 0 0 0 0 0 0 0 0 0 0 0 0 0 0 0 0 0 5 13 12 13 28 47 37 24 6 0 0 0 0 0 0 0 0 0 0 0
462 354 186 71 39 10 1 0 0 0 0 0 0 0 0 0 0 0 0 0 0 0 0 0 0 3 11 11 0 31 20 30 74 46 33 16 4 6 1 5 5 2 1
377 332 169 94 59 8 0 0 0 0 0 0 0 0 0 0 0 0 0 0 0 0 1 0 0 0 0 0 0 0 0 5 0 14 45 51 21 0 0 0 0 0 3
308 279 117 100 65 6 0 0 0 0 0 0 0 0 0 0 0 0 0 0 0 0 0 0 0 0 0 0 0 0 0 0 0 0 0 0 0 0 0 0 0 0 0
245 198 141 60 30 14 1 0 0 0 0 0 0 0 0 0 0 0 0 0 0 0 0 0 0 0 0 0 0 0 1 4 27 4 0 0 0 0 0 1 3 2 0
271 225 92 39 26 57 16 0 0 0 0 0 0 0 0 0 0 0 0 0 0 0 0 0 0 0 0 1 1 0 0 0 5 6 2 0 0 0 0 8 17 1 0
165 142 96 26 44 62 36 0 0 0 0 0 0 0 0 0 0 0 0 0 0 0 0 0 0 0 0 0 0 0 0 0 0 1 3 0 0 7 14 12 10 16 0
224 216 148 39 27 21 4 0 0 0 0 0 0 0 0 0 0 0 0 0 0 0 0 0 0 0 0 0 0 0 0 0 0 3 5 0 0 0 1 10 22 30 0
202 236 202 99 27 29 3 0 0 0 0 0 0 0 1 0 0 0 0 0 1 1 0 0 0 0 0 0 1 0 0 0 0 2 3 4 4 4 5 9 25 31 1
73 192 184 106 71 6 2 0 0 0 0 0 0 0 0 0 0 0 0 0 0 0 0 0 0 0 0 0 0 0 0 0 0 0 1 0 5 5 4 4 7 26 0
61 112 154 176 103 10 10 1 0 0 0 0 0 0 6 2 0 0 0 15 24 13 0 0 0 0 0 0 0 0 0 0 0 0 0 4 0 0 0 3 16 7 0
2 90 115 169 177 79 11 1 1 0 0 0 0 0 0 0 1 18 22 60 18 19 0 0 0 0 0 0 0 0 0 0 0 0 0 2 1 0 0 0 0 0 0
56 98 186 240 214 174 129 36 15 2 1 0 0 0 0 0 0 15 34 76 66 48 26 2 1 0 0 0 0 0 0 0 0 0 0 0 0 0 0 0 0 0 0
38 71 186 277 326 249 188 105 16 1 1 1 0 0 0 0 0 4 26 72 58 91 57 109 71 0 3 2 1 0 0 0 0 0 0 0 0 0 0 0 0 0 0
73 114 139 207 221 273 195 86 27 2 3 1 1 1 0 0 0 26 51 68 76 91 105 152 45 0 0 0 0 1 0 0 0 0 0 0 0 0 0 0 0 0 0
135 89 167 113 113 92 123 78 47 29 5 1 6 0 0 0 0 10 29 55 65 114 79 123 37 0 0 0 0 0 0 0 0 0 0 0 0 0 0 0 0 0 0
117 140 133 115 109 106 162 135 81 58 35 5 9 0 1 3 7 4 35 46 48 66 39 46 44 0 2 1 2 2 2 0 0 0 0 0 0 1 1 1 0 0 0
202 150 121 120 119 111 139 134 77 23 16 19 10 16 0 0 3 6 5 7 36 53 25 22 19 0 0 0 3 2 1 1 0 0 0 0 0 1 0 2 2 0 0
228 151 86 82 103 122 138 88 66 45 54 47 23 1 1 1 17 36 14 4 26 40 18 7 3 0 0 0 0 0 4 3 3 0 0 0 0 0 0 1 1 0 0
135 79 146 117 58 35 27 41 43 12 6 4 0 0 0 0 0 2 12 0 12 16 8 20 7 1 1 1 1 1 2 2 1 1 0 0 0 0 0 1 2 2 0
0 0 0 0 1 0 0 0 0 0 0 0 0 0 0 0 0 0 1 1 0 0 0 10 9 2 1 0 0 1 3 2 0 0 1 0 0 0 0 1 1 0 0
2 4 4 4 3 3 2 0 0 1 2 3 2 2 2 1 1 2 0 0 0 0 0 0 0 0 0 0 0 1 1 1 1 1 0 0 0 0 0 0 0 1 1
4 4 4 5 5 4 2 1 0 0 1 2 2 1 2 2 4 3 2 0 0 0 2 0 0 0 0 0 0 0 0 0 0 1 1 0 0 0 0 0 0 0 3
0 0 1 1 1 0 0 0 0 0 0 0 0 0 0 0 0 1 1 2 2 1 2 2 1 1 0 0 0 0 0 0 0 0 0 1 1 0 0 0 0 0 2

GFSMA_con_mlcape_144.txt.gz
CAPE
566 543 353 404 244 2 0 0 0 0 0 0 0 0 0 0 0 0 0 0 0 0 0 0 0 0 0 0 0 0 0 0 0 0 0 0 0 0 0 0 2 2 3
590 504 387 286 235 29 0 0 0 0 0 0 0 0 0 0 0 0 0 0 0 0 0 0 1 0 0 0 0 0 0 0 0 0 0 0 0 0 0 1 6 6 7
557 599 402 288 155 20 56 0 0 0 0 0 0 0 0 0 0 0 0 0 0 0 0 0 1 2 0 1 3 13 34 46 46 39 20 13 13 0 4 8 30 22 24
675 528 505 362 215 69 13 0 0 0 0 0 0 0 0 0 0 0 0 0 0 0 0 0 0 11 30 41 17 2 1 0 0 0 8 58 35 50 44 1 0 0 0
735 571 431 337 265 152 21 0 0 0 0 0 0 0 0 0 0 0 0 0 0 0 0 0 0 0 0 0 0 0 0 0 0 0 0 0 21 35 1 0 0 0 0
613 584 397 381 237 162 29 2 0 0 0 0 0 0 0 0 0 0 0 0 0 0 0 0 0 0 0 0 0 0 0 0 0 0 0 0 0 0 0 0 0 2 9
450 399 417 316 321 196 46 3 0 0 0 0 0 0 0 0 0 0 0 0 0 0 0 0 0 0 0 0 0 0 0 0 9 0 0 0 0 0 0 0 0 3 6
267 370 391 393 367 247 55 2 2 0 0 0 0 0 0 0 0 0 0 0 0 0 0 0 0 0 0 0 0 0 0 0 13 25 8 1 1 1 0 1 0 7 4
186 305 362 378 354 257 124 30 2 0 0 0 0 0 0 0 0 0 0 0 0 0 0 0 0 0 0 0 0 0 0 0 0 17 25 23 5 5 2 6 7 3 22
0 245 278 286 307 248 155 75 19 0 0 0 0 0 0 0 0 0 0 0 0 0 0 0 0 0 0 0 0 0 0 0 0 4 31 10 11 5 7 4 5 8 12
0 0 256 259 249 279 199 172 115 9 0 0 0 0 0 0 0 0 0 0 0 0 0 0 0 0 0 0 0 0 0 6 3 10 28 23 31 13 5 3 5 13 7
0 6 37 129 226 236 225 208 185 96 0 0 0 0 0 0 0 0 0 0 0 0 0 0 0 0 0 0 0 1 6 17 0 3 33 48 30 13 5 5 5 11 3
0 0 14 94 153 83 235 222 236 186 54 0 0 0 0 0 0 0 3 0 10 0 0 0 5 2 0 0 8 7 0 2 0 0 6 50 34 5 2 3 2 1 1
0 0 2 5 105 113 125 190 243 193 89 5 0 0 0 0 0 0 0 0 0 0 7 0 0 3 1 0 0 0 0 0 0 0 0 12 17 14 1 0 0 0 0
0 0 2 41 44 61 76 105 68 140 78 21 0 0 0 0 0 0 0 0 2 1 0 0 0 0 0 0 0 0 0 0 0 0 0 0 0 0 0 0 0 0 0
0 0 0 0 8 45 60 89 70 61 54 63 22 2 0 0 0 0 0 0 1 9 8 0 0 0 0 0 0 0 0 0 0 0 0 0 0 0 0 0 0 0 0
0 0 0 0 0 0 26 38 43 93 98 121 49 20 9 5 6 5 0 1 6 4 18 0 0 0 0 0 0 0 0 0 0 0 0 0 0 0 0 0 0 0 0
0 0 0 0 0 0 2 12 32 110 132 151 133 62 38 29 23 10 1 10 5 23 33 4 0 0 0 0 0 0 0 0 0 0 0 0 0 0 0 0 0 0 0
0 0 1 0 0 0 0 6 25 23 167 227 235 143 79 70 40 23 15 18 8 7 12 13 4 3 0 0 0 0 0 0 0 0 0 0 0 0 0 0 0 0 0
113 134 123 103 77 38 43 63 154 69 42 203 162 163 145 56 50 62 60 25 18 2 3 46 44 40 0 0 0 0 0 1 0 0 0 0 0 0 0 0 0 0 0
127 109 111 117 114 122 128 49 57 72 69 61 49 54 63 100 88 109 66 54 35 33 48 52 11 0 0 0 0 0 0 0 0 1 1 0 0 1 2 2 2 3 0
0 2 11 8 24 65 32 55 79 61 73 47 54 56 107 42 0 0 5 27 36 21 3 0 0 0 0 0 0 0 0 0 0 0 0 0 1 3 2 1 1 3 4
0 0 0 0 0 0 1 34 65 122 89 56 29 38 0 1 0 0 0 0 0 0 1 0 0 0 1 0 1 1 1 1 0 0 0 1 1 1 2 1 0 1 1
0 0 2 2 2 3 3 1 0 0 0 2 2 2 2 2 3 1 1 1 1 0 0 0 1 1 1 1 1 3 2 1 0 0 0 0 0 0 0 1 0 0 0
1 2 1 4 2 1 2 4 1 4 3 3 2 2 3 3 3 0 0 0 0 0 0 0 0 0 1 1 2 1 0 0 0 0 0 1 0 0 0 0 0 2 4
2 1 0 1 4 3 1 1 1 2 3 2 0 0 0 0 0 1 2 3 1 2 0 0 0 0 0 0 1 0 0 1 1 0 0 1 0 0 0 0 0 0 2

GFSMA_con_mlcape_147.txt.gz
CAPE
450 342 306 281 172 24 0 0 0 0 0 0 0 0 0 0 0 0 0 0 0 0 0 0 0 0 0 0 0 0 0 0 0 0 0 0 0 0 0 0 0 0 0
572 441 353 340 266 118 3 0 0 0 0 0 0 0 0 0 0 0 0 0 0 0 0 0 0 0 0 0 0 0 0 0 0 0 0 0 0 0 0 0 8 20 17
653 598 465 361 311 182 50 0 0 0 0 0 0 0 0 0 0 0 0 0 0 0 0 0 0 1 1 2 5 3 18 24 30 14 46 40 7 4 1 17 1 0 0
552 564 506 369 278 175 72 0 0 0 0 0 0 0 0 0 0 0 0 0 0 0 0 0 0 0 6 23 51 94 51 6 5 2 0 0 28 37 21 8 0 0 0
607 541 528 421 264 182 49 5 0 0 0 0 0 0 0 0 0 0 0 0 0 0 0 0 0 0 0 0 26 27 20 4 4 1 0 0 0 28 1 0 0 0 1
551 635 496 427 254 183 119 1 0 0 0 0 0 0 0 0 0 0 0 0 0 0 0 0 0 0 0 0 0 0 0 0 0 5 0 0 0 0 0 0 0 1 1
245 502 522 404 317 263 200 48 0 0 0 0 0 0 0 0 0 0 0 0 0 0 0 0 0 0 0 0 0 0 0 0 0 16 2 0 0 0 1 1 0 2 6
122 133 382 510 392 292 197 114 4 0 0 0 0 0 0 0 0 0 0 0 0 0 0 0 0 0 0 0 0 0 0 0 0 33 48 26 7 2 5 8 5 11 28
0 122 192 286 413 361 278 127 35 0 0 0 0 0 0 0 0 0 0 0 0 0 0 0 0 0 0 0 0 0 0 0 0 11 41 69 64 33 10 5 10 14 16
0 0 131 244 238 370 330 219 98 13 1 0 0 0 0 0 0 0 0 0 0 0 0 0 0 0 0 0 0 0 0 0 0 5 30 71 81 83 42 56 21 7 17
0 0 0 108 126 195 218 246 162 58 0 0 0 0 0 0 0 0 0 0 0 0 0 0 0 0 0 0 0 0 0 14 9 11 34 65 76 52 94 60 56 20 21
0 0 0 0 68 115 147 114 163 117 7 1 0 0 0 0 0 0 0 0 0 0 0 0 0 0 0 1 0 0 0 14 26 39 49 61 76 45 79 37 28 23 14
0 0 0 0 0 53 122 147 156 175 132 8 0 0 0 0 0 0 0 0 0 0 0 0 0 0 0 1 3 11 0 0 6 21 34 43 46 25 32 29 19 13 4
0 0 0 0 2 62 87 81 120 90 136 50 17 0 0 0 0 0 0 0 0 0 0 0 0 0 0 0 3 5 2 0 2 0 13 12 24 32 24 4 0 0 0
0 0 0 0 0 1 0 3 55 36 73 103 79 0 0 0 0 0 0 0 0 2 0 0 0 0 0 0 0 0 0 0 4 0 0 0 0 1 6 2 0 0 0
0 0 0 0 0 0 21 23 32 43 52 58 141 51 4 0 0 0 1 1 0 1 1 0 0 0 0 0 0 0 0 0 0 0 0 0 0 0 0 0 0 0 0
0 0 0 0 0 0 0 0 31 30 3 50 59 43 23 5 0 1 2 2 2 1 18 4 0 0 0 0 0 1 0 0 0 0 0 0 0 0 0 0 0 0 0
0 0 0 0 0 0 0 0 0 9 20 34 40 98 56 45 23 15 21 2 2 3 22 31 15 5 30 7 1 3 0 0 0 0 0 0 0 0 0 0 0 0 0
0 0 0 0 0 0 0 0 0 0 4 22 13 137 178 147 52 15 1 6 6 18 40 70 39 34 18 2 3 0 0 0 0 0 0 0 0 0 0 0 0 0 0
0 0 0 0 0 3 5 0 0 0 0 24 48 24 183 161 80 41 40 12 17 15 35 64 36 36 20 0 1 0 1 1 0 0 0 0 0 0 0 0 0 0 0
4 12 24 23 0 0 2 15 77 61 39 33 76 43 75 147 114 76 83 32 42 65 50 36 31 4 0 0 0 0 0 0 0 0 0 0 0 1 1 2 2 0 0
0 0 0 0 0 0 0 0 17 57 73 52 32 51 1 1 2 0 17 0 0 26 47 37 13 1 3 0 0 1 1 0 0 0 1 0 1 0 0 1 0 1 1
0 0 0 0 0 0 0 0 2 11 0 0 0 0 0 0 0 1 1 2 2 2 1 1 0 0 1 1 2 1 0 1 1 0 0 0 0 0 0 0 0 0 0
2 1 1 1 0 1 1 0 0 0 0 0 1 2 1 1 2 1 1 1 2 2 2 1 1 1 1 1 1 1 0 0 0 0 0 0 0 0 0 0 0 0 0
1 3 3 3 2 2 2 4 3 3 3 4 3 2 2 3 3 1 0 1 2 2 0 0 0 0 0 1 1 1 0 0 0 0 0 1 0 0 0 0 0 0 0
1 1 1 1 3 2 1 3 2 2 5 4 3 2 2 2 3 1 0 0 0 2 0 0 0 0 0 0 0 0 1 1 1 0 0 0 0 0 0 0 0 0 0

GFSMA_con_mlcape_150.txt.gz
CAPE
308 397 409 279 221 108 93 37 0 0 0 0 0 0 0 0 0 0 0 0 0 0 0 0 0 0 0 0 0 0 0 0 0 0 0 0 0 0 0 0 0 0 0
510 289 382 320 223 128 49 44 0 0 0 0 0 0 0 0 0 0 0 0 0 0 0 0 0 0 0 0 1 1 0 0 0 0 0 0 0 1 0 10 13 29 11
618 544 410 349 298 191 77 3 0 0 0 0 0 0 0 0 0 0 0 0 0 0 0 0 0 0 1 2 3 6 0 46 44 35 23 36 43 47 47 52 33 0 0
565 478 509 434 328 263 124 50 6 0 0 0 0 0 0 0 0 0 0 0 0 0 0 0 0 0 0 5 7 29 165 51 0 1 2 0 0 0 13 37 0 0 0
363 514 434 446 336 255 173 89 13 0 0 0 0 0 0 0 0 0 0 0 0 0 0 0 0 0 0 0 16 30 6 6 0 0 0 0 0 0 0 0 0 0 0
0 293 509 455 336 239 195 118 41 0 0 0 0 0 0 0 0 0 0 0 0 0 0 0 0 0 0 0 0 0 1 1 0 0 1 0 0 0 0 0 0 2 0
0 0 158 507 415 353 282 165 87 0 0 0 0 0 0 0 0 0 0 0 0 0 0 0 0 0 0 0 0 0 0 0 0 1 14 4 0 0 0 4 7 6 1
0 0 0 72 488 387 301 172 67 13 0 0 0 0 0 0 0 0 0 0 0 0 0 0 0 0 0 0 0 0 0 0 0 8 16 57 13 9 10 14 14 12 12
0 0 0 0 49 380 382 317 146 69 2 0 0 0 0 0 0 0 0 0 0 0 0 0 0 0 0 0 0 0 0 0 0 0 10 54 101 74 45 19 12 14 32
0 0 0 0 1 62 129 355 297 157 101 9 0 0 0 0 0 0 0 0 0 0 0 0 0 0 0 0 0 0 0 0 0 0 11 52 71 84 139 105 44 43 26
0 0 0 0 0 0 58 65 312 224 161 76 0 0 0 0 0 0 0 0 0 0 0 0 0 0 0 0 0 0 0 0 0 0 29 62 102 73 80 111 98 83 24
0 0 0 0 0 0 0 27 82 177 136 108 24 0 0 0 0 0 0 0 0 0 0 0 0 0 0 0 0 0 1 0 1 6 16 55 72 78 67 72 123 96 72
0 0 0 0 0 0 0 7 45 32 58 78 61 12 0 0 0 0 0 0 0 0 0 0 0 0 0 0 0 0 0 0 2 12 16 56 58 101 77 75 82 105 82
0 0 0 0 0 0 0 14 0 4 59 48 50 30 2 0 0 0 0 0 0 0 0 0 0 0 0 0 0 0 0 0 1 20 30 30 21 43 42 52 40 53 50
0 0 0 0 0 0 0 0 0 18 31 23 53 61 16 0 0 0 0 0 0 1 0 0 4 0 0 0 0 0 0 0 0 1 0 4 8 1 0 1 37 11 34
0 0 0 0 0 0 0 0 8 22 20 26 25 26 33 29 2 0 6 4 0 2 4 0 0 0 0 1 0 2 1 13 6 1 0 0 0 0 0 0 0 5 19
0 0 0 0 0 0 0 0 0 4 6 10 22 23 22 47 21 15 19 16 19 24 15 4 0 0 0 1 9 5 7 3 4 0 2 0 0 0 0 0 0 0 1
0 0 0 0 0 0 0 0 0 0 0 0 0 7 0 43 51 43 28 29 8 32 19 16 2 0 0 0 10 7 12 0 0 0 2 1 0 0 0 0 0 0 0
0 0 0 0 0 0 0 0 0 0 0 0 0 7 2 8 16 67 74 42 17 25 24 5 9 29 9 7 26 5 13 2 0 0 0 0 0 0 0 0 0 0 0
0 0 0 0 0 0 0 0 0 0 0 0 0 0 0 22 4 80 85 115 85 49 12 14 35 34 16 0 11 19 0 0 0 0 0 0 0 0 1 2 1 1 0
0 0 0 0 0 0 0 0 0 0 0 0 0 2 0 4 80 23 90 91 103 48 27 10 13 53 26 0 2 0 0 0 0 0 0 0 0 0 0 0 0 0 0
0 0 0 0 0 0 0 0 0 0 0 0 0 10 0 0 14 5 2 0 0 12 22 28 1 22 0 0 0 0 1 0 0 0 1 0 0 0 0 0 0 0 0
0 0 0 0 0 0 0 0 0 0 0 0 9 0 0 0 0 0 1 0 0 0 0 0 0 0 1 2 2 1 1 1 2 0 1 0 0 0 0 0 0 0 0
2 1 1 1 1 2 2 0 0 0 0 0 0 0 0 0 1 1 1 1 3 3 2 0 1 2 2 2 1 1 1 1 0 0 0 0 0 0 0 0 0 0 0
1 2 2 2 1 2 2 3 1 2 1 1 3 3 3 2 2 2 2 2 3 3 2 2 2 2 2 2 0 0 0 0 0 0 0 1 0 0 0 0 0 0 0
1 0 0 0 2 1 2 3 2 2 3 4 2 2 3 2 3 1 2 1 0 2 1 0 1 1 1 3 2 1 1 0 0 0 0 0 0 0 0 0 0 0 0

GFSMA_con_mlcape_153.txt.gz
CAPE
430 454 417 328 275 229 206 107 39 1 0 0 0 0 0 0 0 0 0 0 0 0 0 1 1 0 0 0 0 0 0 0 0 0 0 0 0 0 0 0 0 0 1
387 380 380 316 282 177 159 128 32 0 0 0 0 0 0 0 0 0 0 0 0 0 0 0 0 1 1 2 3 2 0 0 0 0 3 2 4 3 10 8 14 12 0
402 405 323 286 309 229 131 104 55 14 0 0 0 0 0 0 0 0 0 0 0 0 0 0 0 0 3 6 9 5 9 8 42 35 29 10 6 9 19 24 23 0 0
0 158 415 368 313 202 134 46 60 46 3 0 0 0 0 0 0 0 0 0 0 0 0 0 0 0 0 2 9 11 7 49 50 14 5 4 0 0 2 20 23 0 0
0 0 21 439 405 260 161 66 8 28 13 1 0 0 0 0 0 0 0 0 0 0 0 0 0 0 0 0 0 6 4 7 6 11 5 0 0 0 1 15 10 0 0
0 0 0 6 423 370 286 142 29 3 9 5 0 0 0 0 0 0 0 0 0 0 0 0 0 0 0 0 0 0 1 17 31 7 2 2 0 0 1 5 0 3 3
0 0 0 0 0 425 391 276 121 1 2 0 0 0 0 0 0 0 0 0 0 0 0 0 0 0 0 0 0 0 0 0 18 15 0 5 11 0 0 0 11 12 12
0 0 0 0 0 4 398 390 205 114 15 0 4 0 0 0 0 0 0 0 0 0 0 0 0 0 0 0 0 0 0 0 0 12 22 27 32 20 14 12 19 30 23
0 0 0 0 0 0 12 206 248 170 134 7 0 6 1 0 0 0 0 0 0 0 0 0 0 0 0 0 0 0 0 0 0 0 16 40 43 113 96 56 28 15 32
0 0 0 0 0 0 0 13 50 216 153 99 0 0 0 0 0 0 0 0 0 0 0 0 0 0 0 0 0 0 0 0 0 0 0 5 56 57 94 103 79 39 9
0 0 0 0 0 0 0 0 0 30 102 132 19 0 0 0 0 0 0 0 0 0 0 0 0 0 0 0 0 0 0 0 0 0 1 43 37 59 154 160 136 119 41
0 0 0 0 0 0 0 0 0 1 33 31 110 53 1 0 0 0 0 0 0 0 0 0 0 0 0 0 0 0 1 0 4 6 8 68 84 84 140 202 225 185 113
0 0 0 0 0 0 0 0 0 0 0 2 8 4 22 2 0 1 0 0 0 0 0 0 0 0 0 0 0 0 0 0 0 1 11 54 119 122 96 85 121 136 114
0 0 0 0 0 0 0 0 0 16 0 0 2 19 25 22 16 2 2 0 1 0 0 0 0 0 0 0 0 0 0 0 0 0 0 9 40 31 49 65 58 74 48
0 0 0 0 0 0 0 0 0 0 1 16 23 22 25 31 16 8 2 0 21 5 1 0 0 0 0 0 0 0 0 2 3 0 0 0 0 17 27 29 28 31 24
0 0 0 0 0 0 0 0 0 0 0 3 20 18 16 26 22 6 10 5 3 19 5 3 0 0 0 1 0 1 1 0 0 0 0 0 0 0 0 1 0 2 4
0 0 0 0 0 0 0 0 0 6 0 2 7 19 13 26 22 31 31 11 9 18 42 0 0 0 1 1 0 0 0 0 0 1 2 9 2 0 0 0 0 1 2
0 0 0 0 0 0 0 0 0 0 0 0 0 0 0 8 0 2 29 13 4 58 63 17 3 15 8 0 0 0 0 0 0 1 15 13 7 2 0 0 0 0 0
0 0 0 0 0 0 0 0 0 0 0 0 0 0 0 0 2 12 0 0 17 8 64 37 9 24 3 0 1 0 0 0 0 1 9 3 1 0 0 0 0 1 0
0 0 0 0 0 0 0 0 0 0 0 0 0 0 0 0 0 0 7 31 16 30 31 85 52 63 22 0 0 0 0 0 0 0 0 0 0 1 1 2 2 1 0
0 0 0 0 0 0 0 0 0 0 0 0 0 0 0 0 0 13 0 0 65 25 54 31 53 37 10 0 0 0 1 0 0 0 0 0 0 0 0 0 0 0 0
2 2 1 0 0 0 0 0 0 0 0 0 0 0 0 0 5 15 0 0 0 30 66 18 30 36 16 0 0 0 0 0 0 0 1 0 0 0 0 0 0 0 0
0 1 1 1 1 1 2 0 0 0 0 0 0 0 0 1 1 0 0 0 1 0 0 0 19 0 0 2 1 0 2 1 1 1 1 0 0 0 0 0 0 0 0
0 1 1 0 0 1 0 1 0 0 0 0 0 0 0 0 0 1 1 0 1 2 2 1 2 4 2 2 1 1 1 1 0 0 0 0 0 0 0 0 0 0 0
0 1 1 1 1 3 1 1 2 1 1 2 2 2 1 1 3 2 1 1 2 5 4 5 4 4 5 4 1 0 0 0 0 0 0 0 0 0 0 0 0 0 0
0 0 0 0 0 1 2 1 1 2 3 3 2 2 3 3 3 1 2 3 2 3 1 1 1 0 1 4 3 1 1 0 0 0 1 0 0 0 0 0 0 0 0

GFSMA_con_mlcape_156.txt.gz
CAPE
364 355 348 247 313 224 303 202 122 8 0 0 0 0 0 0 0 0 0 0 0 0 1 10 7 3 0 0 0 0 0 0 0 0 0 0 0 0 1 1 1 6 12
302 319 368 272 248 222 226 185 126 38 0 0 0 0 0 0 0 0 0 0 0 0 0 1 7 7 5 4 6 5 5 3 1 1 2 4 7 11 25 31 24 24 29
0 11 315 437 366 227 170 123 142 30 0 0 0 0 0 0 0 0 0 0 0 0 0 0 0 3 9 8 9 4 7 8 10 23 28 22 17 20 35 41 41 30 1
0 0 0 132 448 381 252 106 119 39 20 16 2 0 0 0 0 0 0 0 0 0 0 0 0 0 8 3 6 5 5 11 9 16 15 11 5 7 0 0 31 29 0
0 0 0 0 2 415 379 248 89 82 33 21 2 0 0 0 0 0 0 0 0 0 0 0 0 0 0 0 0 6 5 5 5 6 10 13 7 8 2 1 28 27 0
0 0 0 0 0 0 243 287 247 54 57 32 7 1 0 0 0 0 0 0 0 0 0 0 0 0 0 0 0 0 0 13 9 1 5 5 7 12 5 1 17 3 2
0 0 0 0 0 0 0 226 224 184 51 10 4 1 0 0 0 0 0 0 0 0 0 0 0 0 0 0 0 0 0 0 5 55 39 3 5 15 17 7 7 4 7
0 0 0 0 0 0 0 0 90 158 98 23 67 20 2 0 0 0 0 0 0 0 0 0 0 0 0 0 0 0 0 0 0 26 44 14 12 14 37 26 15 6 8
0 0 0 0 0 0 0 0 0 42 129 51 15 83 13 1 0 0 0 0 0 0 0 0 0 0 0 0 0 0 0 0 0 0 0 42 61 79 84 89 60 48 17
0 0 0 0 0 0 0 0 0 0 5 70 0 16 45 0 2 0 0 0 0 0 0 0 0 0 0 0 0 0 0 0 0 0 0 39 78 73 87 72 113 122 78
0 0 0 0 0 0 0 0 0 0 0 6 0 0 4 5 0 0 0 0 0 0 0 0 0 0 0 0 0 0 0 0 0 0 0 36 67 64 67 117 149 69 124
0 0 0 0 0 0 0 0 0 0 0 0 0 10 16 13 2 0 2 0 0 0 0 0 0 0 0 0 0 0 0 0 0 0 16 64 87 77 73 117 137 165 182
0 0 0 0 0 0 0 0 0 0 0 0 0 0 4 17 26 15 8 10 8 2 0 0 0 0 0 0 0 0 0 0 0 0 4 49 82 65 50 90 168 136 147
0 0 0 0 0 0 0 0 0 0 3 9 0 0 5 14 24 14 7 10 11 5 4 0 0 0 0 0 0 0 0 0 0 0 0 3 21 21 32 70 40 32 46
0 0 0 0 0 0 0 0 0 0 0 0 9 7 23 30 37 43 29 34 11 2 6 0 0 0 0 0 0 0 0 0 0 0 0 0 0 0 0 0 11 34 55
0 0 0 0 0 0 0 0 0 0 0 0 0 0 1 9 18 13 7 24 34 35 8 2 0 0 0 0 0 0 3 1 1 3 3 4 1 0 0 0 8 14 9
0 0 0 0 0 0 0 0 0 0 0 0 0 5 10 23 17 21 25 7 3 7 16 1 4 1 0 0 0 0 1 17 19 15 18 0 0 0 3 2 0 3 7
0 0 0 0 0 0 0 0 0 0 0 0 0 0 0 0 0 2 10 9 18 23 18 13 6 2 0 0 0 0 0 0 0 3 6 0 0 2 0 0 1 3 0
0 0 0 0 0 0 0 0 0 0 0 0 0 0 0 0 0 0 0 24 36 16 10 8 5 29 23 11 13 1 0 0 0 0 0 0 0 0 0 0 0 0 0
1 1 0 0 0 0 0 0 0 0 0 0 0 0 0 0 0 0 0 0 0 21 48 29 25 31 42 44 17 35 11 0 1 0 0 0 0 0 0 1 1 1 0
1 1 0 1 1 0 1 1 0 0 0 0 0 0 0 0 0 0 0 3 54 67 97 34 25 52 31 1 1 5 5 0 0 0 0 0 0 0 0 0 0 0 0
0 0 0 0 1 1 1 1 1 0 0 0 0 0 0 0 0 0 0 0 1 59 64 68 117 63 24 10 2 0 0 0 0 0 0 0 0 0 1 0 1 1 0
0 2 1 1 2 2 1 2 1 1 1 2 2 2 1 0 0 0 0 1 2 2 2 0 20 0 0 2 2 0 0 0 0 2 2 1 1 1 0 0 0 0 0
0 0 0 0 1 2 1 0 1 1 1 2 2 1 1 1 1 1 1 1 4 4 4 4 5 5 5 2 2 2 1 1 1 1 0 0 1 1 0 0 0 0 0
0 0 0 0 0 2 1 1 0 0 0 2 1 2 3 3 2 2 1 2 4 5 3 5 5 4 5 3 0 0 0 0 0 2 1 1 1 0 0 0 0 0 0
0 0 0 0 0 0 1 2 1 1 0 2 1 2 4 3 4 1 0 1 2 2 0 0 0 0 0 0 0 0 1 0 0 0 1 0 0 0 0 0 0 0 0

GFSMA_con_mlcape_159.txt.gz
CAPE
334 369 413 338 276 305 354 290 220 263 144 7 0 0 0 0 0 0 0 0 0 0 0 6 7 5 6 3 2 1 0 0 0 0 0 0 0 0 1 8 17 14 26
0 89 407 403 375 263 254 243 153 85 108 83 0 0 0 0 0 0 0 0 0 0 0 0 10 8 5 12 6 6 7 8 4 2 2 3 4 1 21 36 34 39 43
0 0 0 113 425 339 293 222 188 134 18 44 58 0 0 0 0 0 0 0 0 0 0 0 0 19 43 4 5 6 11 10 6 6 22 29 32 22 26 32 37 39 37
0 0 0 0 0 368 390 255 239 221 137 41 47 17 6 0 0 0 0 0 0 0 0 0 0 0 54 72 53 7 5 8 13 10 4 23 3 8 6 6 0 32 25
0 0 0 0 0 0 13 330 238 234 170 87 60 38 9 0 0 0 0 0 0 0 0 0 0 0 0 0 34 41 4 23 6 6 13 21 8 11 11 9 0 27 17
0 0 0 0 0 0 0 0 150 199 182 172 114 38 13 0 0 0 0 0 0 0 0 0 0 0 0 0 0 0 0 39 31 13 22 5 9 11 15 12 0 1 6
0 0 0 0 0 0 0 0 0 123 137 68 94 15 5 8 0 41 0 0 0 0 0 0 0 0 0 0 0 0 0 0 32 55 39 39 21 0 4 19 0 0 0
0 0 0 0 0 0 0 0 0 0 16 115 29 6 3 1 1 0 56 3 0 0 0 0 0 0 0 0 0 0 0 0 0 25 80 69 65 55 32 66 40 7 4
0 0 0 0 0 0 0 0 0 0 0 71 30 27 12 8 1 15 14 0 0 0 0 0 0 0 0 0 0 0 0 0 0 0 0 67 73 65 100 104 105 93 43
0 0 0 0 0 0 0 0 0 0 0 0 20 43 6 2 6 5 0 0 0 0 0 0 0 0 0 0 0 0 0 0 0 0 0 33 85 106 114 134 138 170 98
0 0 0 0 0 0 0 0 0 0 0 0 1 25 16 36 17 3 3 0 0 0 0 0 0 0 0 0 0 0 0 0 0 0 9 58 72 133 139 133 142 129 105
0 0 0 0 0 0 0 0 0 0 0 0 0 12 27 28 22 27 12 0 1 0 0 0 0 0 0 0 0 0 0 0 0 0 0 47 63 68 160 124 130 138 106
0 0 0 0 0 0 0 0 0 0 0 0 0 0 1 3 38 47 40 31 10 1 0 0 0 0 0 0 0 0 0 0 0 0 0 29 71 70 99 109 155 169 172
2 0 0 0 0 0 0 0 0 0 0 0 0 0 0 1 3 11 9 26 4 7 4 0 0 0 0 0 0 0 0 0 0 0 0 1 34 72 65 54 71 108 69
2 1 0 0 0 0 0 0 0 0 0 0 0 0 0 0 0 0 0 16 4 0 0 0 0 0 0 0 0 0 0 0 0 0 0 0 3 2 0 0 0 4 3
0 0 0 0 0 0 0 0 0 0 0 0 0 0 0 3 9 15 13 16 14 0 0 3 0 0 0 0 0 0 0 0 0 0 0 0 0 11 3 1 0 0 0
0 0 0 0 0 0 0 0 0 0 0 0 0 0 0 5 28 58 57 78 60 29 5 4 4 2 3 0 1 12 16 16 5 0 4 0 0 11 16 3 0 0 0
0 0 0 0 0 0 0 0 0 0 0 3 6 1 1 1 1 11 11 4 0 12 23 0 17 17 25 16 4 11 17 21 46 32 3 0 0 2 0 0 0 0 0
3 0 0 0 0 0 0 0 0 0 0 0 0 0 0 0 0 0 0 0 0 11 33 33 0 16 21 60 31 41 36 44 36 19 27 13 0 0 0 0 0 0 0
1 1 2 1 1 1 0 0 0 0 0 0 0 0 0 0 0 0 0 0 0 0 26 54 0 1 53 69 103 31 44 66 25 7 0 1 0 0 0 1 1 1 1
0 0 0 0 0 1 1 1 1 0 0 0 0 0 0 1 0 0 1 0 1 3 5 2 1 1 4 33 74 94 76 95 35 12 1 0 0 1 1 1 1 0 1
0 0 0 1 1 2 0 1 0 0 0 0 1 0 0 0 0 0 0 0 0 0 1 2 3 17 37 7 2 9 13 0 2 1 1 1 0 1 1 1 1 1 1
0 0 0 0 1 1 0 0 0 0 0 0 0 0 0 0 0 1 1 2 4 4 5 2 1 2 2 5 3 1 2 1 1 2 1 0 1 1 2 3 2 1 3
0 0 0 0 1 2 1 1 0 0 0 0 1 1 1 1 1 1 1 2 3 4 2 1 3 4 3 2 1 1 0 1 1 0 0 0 1 1 1 0 3 4 3
0 0 0 0 0 1 1 1 1 1 2 1 2 3 3 1 0 1 0 1 2 2 3 4 2 2 3 3 0 0 0 0 0 1 0 0 2 0 0 0 0 0 0
0 0 0 0 0 0 0 1 0 0 0 0 1 1 3 3 2 0 0 0 0 1 0 0 0 0 0 0 1 0 0 0 0 0 1 0 0 0 0 1 2 0 0